Retour au catalogue

STARLINK-11240

ActifCommunicationsVLEO
NORAD 60929·PAYLOAD·🇺🇸 United States

Lancé Aug 31, 2024 depuis Vandenberg Space Force Base

Loading…

Prochains Passages (prochaines 24 heures)

TLE

FraisSource: CelesTrak SupGP

Époque: Sep 14, 2026, 22:44 UTC

1 60929C 24155F   26257.94770833 -.00054219  00000+0 -44662-3 0  2570
2 60929  53.1565 128.2435 0001144  87.7356  70.2730 15.69736746    18

Suivez STARLINK-11240 en temps réel avec AllMySat

Download on the App Store